Weather in Bogatyr

Russia / Samara Oblast     53°25′45″N   49°57′47″E
temp.,
°C
wind,
m/s
gust,
m/s
humid.,
%
clouds,
%
prec.,
mm/h
press.,
hPa
HPBL,
m
27 february, sat
sat2701:00−9sse81594100 3.7 1002528
04:00−6sse3596100 6.6 999225
07:00−5ssw3496100 0.1 998121
10:00+1wsw4109991 0.3 998487
13:00+1wsw4910096 0.4 997484
16:000wsw489998 1.0 997419
19:000wsw3798100 0.8 997357
22:00−7nnw5796100 1.4 998261
28 february, sun
sun2801:00−11nw51194100 0.4 999355
04:00−12nw6129399 0.6 1001412
07:00−15nw61294100 0.1 1004363
10:00−15nw61094100 0.1 1005379
13:00−13nw6992100 0.1 1008442
16:00−13nw6992100 0.1 1009489
19:00−14nw5109499 0.1 1012444
22:00−15nw399598 0.3 1014416
1 march, mon
mon101:00−17nw369795 0.1 1015147
04:00−20nw359887 0.1 1018110
07:00−22nw349865 0.0 101971
10:00−19nw369567 0.0 1021258
13:00−15nw359075 0.0 1022350
16:00−15nw459275 0.0 1023337
19:00−19wnw239649 0.0 102324
22:00−20wsw129425 0.0 102320
2 march, tue
tue201:00−19ssw22940 0.0 102121
04:00−18ssw339820 0.0 101944
07:00−16ssw399698 0.0 1015215
10:00−11ssw5129298 0.1 1012345
13:00−7ssw71291100 0.4 1008535
16:00−4ssw71392100 0.8 1005664
19:00−3ssw51195100 0.9 1002523
22:00−2w399799 1.8 1002362
3 march, wed
wed301:00−4wnw499692 0.2 1001303
04:00−4w4109595 0.4 1001431
07:00−5wnw5119590 0.2 1001396
10:00−3nw7119495 1.0 1002784
13:00−3nw81291100 0.4 1003867
16:00−3nw71189100 0.5 1004965
19:00−5nw71391100 0.2 1006575
22:00−6nw6129399 0.3 1008553